LRTZ Weather Reports


Display with metric or nautical units.
time (UTC)temp
F
wind
direction
speed
MPH
gust
MPH
rain 1hr
in
rain 24hr
in
rain mn
in
humidity
%
barometer
mb
20260507104902 59 140 14.0 0.0 0.00 0.00 0.00 72 1019.0
20260507103402 59 140 14.0 0.0 0.00 0.00 0.00 72 1019.0
20260507101902 59 140 14.0 0.0 0.00 0.00 0.00 72 1019.0
20260507100403 59 140 14.0 0.0 0.00 0.00 0.00 72 1019.0
20260507094903 0 0.0 0.0 0.00 0.00 0.00
20260507093403 0 0.0 0.0 0.00 0.00 0.00
20260507091904 0 0.0 0.0 0.00 0.00 0.00
20260507090403 0 0.0 0.0 0.00 0.00 0.00
20260507084903 59 140 11.0 0.0 0.00 0.00 0.00 72 1019.0
20260507083403 59 140 11.0 0.0 0.00 0.00 0.00 72 1019.0
20260507081903 59 140 11.0 0.0 0.00 0.00 0.00 72 1019.0
20260507080403 59 140 11.0 0.0 0.00 0.00 0.00 72 1019.0
20260507074903 57 160 9.0 0.0 0.00 0.00 0.00 77 1019.0
20260507073402 57 160 9.0 0.0 0.00 0.00 0.00 77 1019.0
20260507071903 57 160 9.0 0.0 0.00 0.00 0.00 77 1019.0
20260507070402 57 160 9.0 0.0 0.00 0.00 0.00 77 1019.0
20260507064903 55 160 9.0 0.0 0.00 0.00 0.00 88 1018.0
20260507063403 55 160 9.0 0.0 0.00 0.00 0.00 88 1018.0
20260507061913 55 160 9.0 0.0 0.00 0.00 0.00 88 1018.0
20260507060403 55 160 9.0 0.0 0.00 0.00 0.00 88 1018.0
20260507054903 52 130 5.0 0.0 0.00 0.00 0.00 94 1018.0
20260507053410 52 130 5.0 0.0 0.00 0.00 0.00 94 1018.0
20260507051903 52 130 5.0 0.0 0.00 0.00 0.00 94 1018.0
20260507050403 0 0.0 0.0 0.00 0.00 0.00
20260507044856 45 180 2.0 0.0 0.00 0.00 0.00 93 1017.0
20260507043402 45 180 2.0 0.0 0.00 0.00 0.00 93 1017.0
20260507041903 45 180 2.0 0.0 0.00 0.00 0.00 93 1017.0
20260507040402 45 180 2.0 0.0 0.00 0.00 0.00 93 1017.0
20260507034900 43 180 2.0 0.0 0.00 0.00 0.00 93 1017.0
20260507033402 43 180 2.0 0.0 0.00 0.00 0.00 93 1017.0
20260507031859 43 180 2.0 0.0 0.00 0.00 0.00 93 1017.0
20260507030402 43 180 2.0 0.0 0.00 0.00 0.00 93 1017.0
20260507024859 46 140 7.0 0.0 0.00 0.00 0.00 93 1018.0
20260507023402 46 140 7.0 0.0 0.00 0.00 0.00 93 1018.0
20260507021903 0 0.0 0.0 0.00 0.00 0.00
20260507020402 0 0.0 0.0 0.00 0.00 0.00
20260507014903 46 140 7.0 0.0 0.00 0.00 0.00 93 1018.0
20260507013402 46 140 7.0 0.0 0.00 0.00 0.00 93 1018.0
20260507011902 46 140 7.0 0.0 0.00 0.00 0.00 93 1018.0
20260507010403 46 140 7.0 0.0 0.00 0.00 0.00 93 1018.0
20260507004902 46 140 7.0 0.0 0.00 0.00 0.00 93 1018.0
20260507003403 46 150 5.0 0.0 0.00 0.00 0.00 93 1018.0
20260507001902 46 150 5.0 0.0 0.00 0.00 0.00 93 1018.0
20260507000405 46 150 5.0 0.0 0.00 0.00 0.00 93 1018.0
20260506234902 46 140 7.0 0.0 0.00 0.00 0.00 93 1018.0
20260506233402 46 140 7.0 0.0 0.00 0.00 0.00 93 1018.0
20260506231900 46 140 7.0 0.0 0.00 0.00 0.00 93 1018.0
20260506230402 46 140 7.0 0.0 0.00 0.00 0.00 93 1018.0
20260506224859 46 150 7.0 0.0 0.00 0.00 0.00 93 1018.0
20260506223402 46 150 7.0 0.0 0.00 0.00 0.00 93 1018.0
20260506221902 46 150 7.0 0.0 0.00 0.00 0.00 93 1018.0
20260506220402 0 0.0 0.0 0.00 0.00 0.00
20260506214915 48 140 7.0 0.0 0.00 0.00 0.00 100 1018.0
20260506213403 48 140 7.0 0.0 0.00 0.00 0.00 100 1018.0
20260506211856 48 140 7.0 0.0 0.00 0.00 0.00 100 1018.0
20260506210402 48 140 7.0 0.0 0.00 0.00 0.00 100 1018.0
20260506204903 48 140 9.0 0.0 0.00 0.00 0.00 100 1017.0
20260506203402 48 140 9.0 0.0 0.00 0.00 0.00 100 1017.0
20260506201856 48 140 9.0 0.0 0.00 0.00 0.00 100 1017.0
20260506200402 48 140 9.0 0.0 0.00 0.00 0.00 100 1017.0
20260506194919 50 140 7.0 0.0 0.00 0.00 0.00 100 1017.0
20260506193426 50 140 7.0 0.0 0.00 0.00 0.00 100 1017.0
20260506191903 50 140 7.0 0.0 0.00 0.00 0.00 100 1017.0
20260506190403 50 140 7.0 0.0 0.00 0.00 0.00 100 1017.0
20260506184905 50 140 9.0 0.0 0.00 0.00 0.00 88 1017.0
20260506183403 50 140 9.0 0.0 0.00 0.00 0.00 88 1017.0
20260506181903 50 140 9.0 0.0 0.00 0.00 0.00 88 1017.0
20260506180403 0 0.0 0.0 0.00 0.00 0.00
20260506174903 54 140 9.0 0.0 0.00 0.00 0.00 88 1016.0
20260506173402 54 140 9.0 0.0 0.00 0.00 0.00 88 1016.0
20260506171903 54 140 9.0 0.0 0.00 0.00 0.00 88 1016.0
20260506170402 54 140 9.0 0.0 0.00 0.00 0.00 88 1016.0
20260506164902 57 160 9.0 0.0 0.00 0.00 0.00 77 1016.0
20260506163402 57 160 9.0 0.0 0.00 0.00 0.00 77 1016.0
20260506161903 57 160 9.0 0.0 0.00 0.00 0.00 77 1016.0
20260506160402 57 160 9.0 0.0 0.00 0.00 0.00 77 1016.0
20260506154903 59 140 11.0 0.0 0.00 0.00 0.00 72 1016.0
20260506153402 59 140 11.0 0.0 0.00 0.00 0.00 72 1016.0
20260506151902 59 140 11.0 0.0 0.00 0.00 0.00 72 1016.0
20260506150408 59 140 11.0 0.0 0.00 0.00 0.00 72 1016.0
20260506144903 59 140 11.0 0.0 0.00 0.00 0.00 68 1016.0
20260506143414 59 140 11.0 0.0 0.00 0.00 0.00 68 1016.0
20260506141902 59 140 11.0 0.0 0.00 0.00 0.00 68 1016.0
20260506140526 0 0.0 0.0 0.00 0.00 0.00
20260506134927 61 150 16.0 0.0 0.00 0.00 0.00 68 1017.0
20260506133402 61 150 16.0 0.0 0.00 0.00 0.00 68 1017.0
20260506131859 61 150 16.0 0.0 0.00 0.00 0.00 68 1017.0
20260506130411 61 150 16.0 0.0 0.00 0.00 0.00 68 1017.0
20260506124903 61 150 16.0 0.0 0.00 0.00 0.00 63 1017.0
20260506123402 61 150 16.0 0.0 0.00 0.00 0.00 63 1017.0
20260506121903 61 150 16.0 0.0 0.00 0.00 0.00 63 1017.0
20260506120402 61 150 16.0 0.0 0.00 0.00 0.00 63 1017.0
20260506114902 61 150 17.0 0.0 0.00 0.00 0.00 68 1017.0
20260506113403 61 150 17.0 0.0 0.00 0.00 0.00 68 1017.0
20260506111902 61 150 17.0 0.0 0.00 0.00 0.00 68 1017.0
20260506110402 61 150 17.0 0.0 0.00 0.00 0.00 68 1017.0